Cordova, AK

5:46 PM AKST on February 23, 2017 (GMT -0900)
Cordova-Smith

Weather History for PACV - January, 2014

Change the Weather History Date:

Thursday, January 23, 2014

  Actual Average Record
Temperature  
Mean Temperature 46 °F -  
Max Temperature 46 °F 31 °F 55 °F (1961)
Min Temperature 45 °F 16 °F -14 °F (1972)
Degree Days  
Heating Degree Days 20    
Moisture  
Dew Point 42 °F    
Average Humidity 85    
Maximum Humidity 90    
Minimum Humidity 79    
Precipitation  
Precipitation 1.93 in - - ()
Snow  
Snow 0.00 in - - ()
Snow Depth 0.00 in    
Sea Level Pressure  
Sea Level Pressure 29.86 in    
Wind  
Wind Speed 11 mph (ESE)    
Max Wind Speed 18 mph    
Max Gust Speed 32 mph    
Visibility 5 miles    
Events Rain    
Averages and records for this station are not official NWS values.
T = Trace of Precipitation, MM = Missing Value Source: NWS Daily Summary

Daily Weather History Graph

Daily Weather History Graph

Search for Another Location

Airport or City:

Trip Planner

Search our weather history database for the weather conditions in past years. The results will help you decide how hot, cold, wet, or windy it might be!

Date:

Astronomy

Jan. 23, 2014 Rise Set
Actual Time 9:18 AM AKST 4:30 PM AKST
Civil Twilight 8:26 AM AKST 5:21 PM AKST
Nautical Twilight 7:33 AM AKST 6:14 PM AKST
Astronomical Twilight 6:43 AM AKST 7:04 PM AKST
Moon 1:11 AM AKST (1/23) 10:52 AM AKST (1/23)
Length of Visible Light 8h 54m
Length of Day
7h 12m
Waning Gibbous, 54% of the Moon is Illuminated
Jan 23
Waning Gibbous
Jan 23
Last Quarter
Jan 30
New
Feb 6
First Quarter
Feb 14
Full

Hourly Weather History & Observations

Time (AKST) Temp. Windchill Dew Point Humidity Pressure Visibility Wind Dir Wind Speed Gust Speed Precip Events Conditions
12:53 AM 46.0 °F 41.4 °F 41.0 °F 83% 29.67 in 4.0 mi East 9.2 mph 20.7 mph 0.13 in Rain Rain
1:53 AM 46.0 °F 42.5 °F 42.1 °F 86% 29.66 in 3.0 mi East 6.9 mph 20.7 mph 0.13 in Rain Light Rain
2:09 AM 46.4 °F 40.4 °F 42.8 °F 87% 29.68 in 2.0 mi East 13.8 mph 23.0 mph 0.04 in Rain Rain
2:53 AM 46.9 °F - 43.0 °F 86% 29.69 in 2.0 mi ESE 10.4 mph 19.6 mph 0.17 in Rain Heavy Rain
3:53 AM 46.9 °F - 43.0 °F 86% 29.70 in 2.0 mi East 16.1 mph 25.3 mph 0.19 in Rain Rain
4:12 AM 46.4 °F 40.1 °F 42.8 °F 87% 29.70 in 2.5 mi East 15.0 mph 27.6 mph 0.03 in Rain Light Rain
4:53 AM 46.9 °F - 43.0 °F 86% 29.73 in 2.0 mi ESE 13.8 mph 26.5 mph 0.09 in Rain Rain
5:43 AM 46.4 °F 41.1 °F 42.8 °F 87% 29.75 in 3.0 mi ESE 11.5 mph 25.3 mph 0.09 in Rain Light Rain
5:53 AM 46.9 °F - 43.0 °F 86% 29.76 in 2.5 mi ESE 13.8 mph 27.6 mph 0.10 in Rain Light Rain
6:02 AM 46.4 °F 40.1 °F 42.8 °F 87% 29.76 in 3.0 mi ESE 15.0 mph 25.3 mph 0.00 in Rain Light Rain
6:11 AM 46.4 °F 40.4 °F 42.8 °F 87% 29.77 in 2.0 mi ESE 13.8 mph 24.2 mph 0.01 in Rain Light Rain
6:28 AM 46.4 °F 40.4 °F 42.8 °F 87% 29.79 in 3.0 mi ESE 13.8 mph 23.0 mph 0.03 in Rain Light Rain
6:53 AM 46.0 °F 41.0 °F 43.0 °F 89% 29.80 in 3.0 mi ESE 10.4 mph 23.0 mph 0.04 in Rain Light Rain
7:53 AM 46.0 °F 41.0 °F 43.0 °F 89% 29.85 in 3.0 mi ESE 10.4 mph 25.3 mph 0.01 in Rain Light Rain
8:53 AM 46.0 °F 40.6 °F 42.1 °F 86% 29.88 in 6.0 mi ESE 11.5 mph 17.3 mph 0.01 in Rain Light Rain
9:53 AM 45.0 °F 40.6 °F 42.1 °F 90% 29.93 in 10.0 mi ESE 8.1 mph - 0.00 in   Overcast
10:53 AM 45.0 °F 42.6 °F 42.1 °F 90% 29.95 in 10.0 mi ESE 4.6 mph - 0.01 in Rain Light Rain
11:53 AM 46.0 °F 40.6 °F 41.0 °F 83% 29.98 in 8.0 mi ESE 11.5 mph 19.6 mph 0.01 in Rain Light Rain
12:53 PM 46.0 °F 41.4 °F 41.0 °F 83% 29.98 in 10.0 mi ESE 9.2 mph - 0.01 in   Overcast
1:53 PM 46.0 °F 40.6 °F 39.9 °F 79% 29.98 in 10.0 mi SE 11.5 mph 18.4 mph 0.00 in Rain Light Rain
2:53 PM 46.0 °F 43.1 °F 39.9 °F 79% 29.97 in 10.0 mi East 5.8 mph - 0.01 in Rain Light Rain
3:53 PM 46.0 °F 41.9 °F 39.9 °F 79% 29.97 in 10.0 mi ESE 8.1 mph - 0.01 in Rain Light Rain
4:53 PM 46.0 °F 43.1 °F 39.9 °F 79% 29.96 in 10.0 mi ESE 5.8 mph - 0.02 in Rain Light Rain
5:53 PM 45.0 °F 40.6 °F 39.9 °F 82% 29.95 in 10.0 mi East 8.1 mph 17.3 mph 0.06 in Rain Light Rain
6:53 PM 46.0 °F 38.8 °F 39.9 °F 79% 29.96 in 4.0 mi ESE 18.4 mph 32.2 mph 0.08 in Rain Rain
7:53 PM 45.0 °F 37.4 °F 39.0 °F 80% 29.95 in 6.0 mi ESE 18.4 mph 27.6 mph 0.08 in Rain Rain
8:53 PM 45.0 °F 39.3 °F 39.9 °F 82% 29.94 in 6.0 mi East 11.5 mph 19.6 mph 0.13 in Rain Rain
9:53 PM 46.0 °F 41.4 °F 39.9 °F 79% 29.94 in 5.0 mi East 9.2 mph - 0.12 in Rain Rain
10:53 PM 46.0 °F 41.4 °F 42.1 °F 86% 29.95 in 3.0 mi ESE 9.2 mph - 0.25 in Rain Heavy Rain
11:44 PM 46.4 °F 41.1 °F 42.8 °F 87% 29.96 in 2.5 mi ESE 11.5 mph 20.7 mph 0.23 in Rain Heavy Rain
11:53 PM 46.9 °F - 43.0 °F 86% 29.97 in 3.0 mi ESE 12.7 mph 21.9 mph 0.27 in Rain Heavy Rain